DTA572 FNUB-FNLU

Flight info

Callsign DTA572
Flight time N/A
Altitude 39000
Route BENGA J614 EXALA
Aircraft B737/M-SDE2E3FGHIRWXY/LB1

Departure

Time N/A
Airport Lubango Mukanka International Airport (FNUB)

Arrival

Time 2026-04-30 18:18
Airport Quatro de Fevereiro International Airport (FNLU)
Time Latitude Longitude Altitude Speed Heading
2026-04-30 17:39 -11.94768 13.37705 38952 ft 440 kts 357°
2026-04-30 17:42 -11.64250 13.36418 38952 ft 439 kts 357°
2026-04-30 17:43 -11.49010 13.35776 38948 ft 440 kts 357°
2026-04-30 17:44 -11.30629 13.35003 38948 ft 441 kts 357°
2026-04-30 17:47 -11.03022 13.33843 38948 ft 441 kts 357°
2026-04-30 17:48 -10.81594 13.32945 38498 ft 447 kts 358°
2026-04-30 17:49 -10.69238 13.32427 36175 ft 441 kts 358°
2026-04-30 17:50 -10.57188 13.31922 34302 ft 430 kts 358°
2026-04-30 17:51 -10.48266 13.31549 32835 ft 424 kts 358°
2026-04-30 17:52 -10.39488 13.31182 31483 ft 417 kts 358°
2026-04-30 17:53 -10.25083 13.30579 29158 ft 409 kts 358°
2026-04-30 17:54 -10.13892 13.30407 27297 ft 398 kts
2026-04-30 17:55 -10.03850 13.30950 25630 ft 391 kts
2026-04-30 17:56 -9.93035 13.31476 23786 ft 387 kts
2026-04-30 17:57 -9.84996 13.31849 22309 ft 382 kts
2026-04-30 17:58 -9.77152 13.32212 20934 ft 374 kts
2026-04-30 17:59 -9.66812 13.32691 19083 ft 369 kts
2026-04-30 18:00 -9.56614 13.33162 17171 ft 364 kts
2026-04-30 18:00 -9.49120 13.33508 15807 ft 355 kts
2026-04-30 18:01 -9.44215 13.33735 14889 ft 350 kts
2026-04-30 18:02 -9.36995 13.34068 13508 ft 341 kts
2026-04-30 18:02 -9.30052 13.34389 12126 ft 322 kts
2026-04-30 18:03 -9.23618 13.34685 10931 ft 294 kts
2026-04-30 18:04 -9.17721 13.34957 10096 ft 270 kts
2026-04-30 18:05 -9.10311 13.35300 8740 ft 264 kts
2026-04-30 18:06 -9.03421 13.37398 7404 ft 259 kts 23°
2026-04-30 18:07 -8.96870 13.40184 6162 ft 254 kts 23°
2026-04-30 18:08 -8.92065 13.42232 5408 ft 242 kts 23°
2026-04-30 18:09 -8.85950 13.44845 5070 ft 229 kts 23°
2026-04-30 18:10 -8.80438 13.47191 4956 ft 222 kts 23°
2026-04-30 18:11 -8.75395 13.46768 4888 ft 190 kts 318°
2026-04-30 18:11 -8.72534 13.43923 4593 ft 202 kts 317°
2026-04-30 18:12 -8.70270 13.40602 4388 ft 199 kts 258°
2026-04-30 18:13 -8.71953 13.38351 3924 ft 202 kts 226°
2026-04-30 18:13 -8.74440 13.35650 3273 ft 196 kts 226°
2026-04-30 18:14 -8.76570 13.33352 2680 ft 182 kts 226°
2026-04-30 18:15 -8.78861 13.30882 2047 ft 138 kts 227°
2026-04-30 18:15 -8.80771 13.28798 1425 ft 132 kts 227°
2026-04-30 18:16 -8.82021 13.27455 1223 ft 133 kts 226°
2026-04-30 18:16 -8.83281 13.26127 854 ft 128 kts 226°
2026-04-30 18:17 -8.83879 13.25448 735 ft 129 kts 227°
2026-04-30 18:17 -8.84517 13.24765 562 ft 136 kts 224°
2026-04-30 18:17 -8.85825 13.23377 260 ft 125 kts 226°
2026-04-30 18:18 -8.86310 13.22856 257 ft 52 kts 226°
2026-04-30 18:18 -8.86413 13.22743 257 ft 11 kts 238°
2026-04-30 18:18 -8.86383 13.22681 257 ft 15 kts 351°
2026-04-30 18:18 -8.86253 13.22689 258 ft 21 kts 17°
2026-04-30 18:19 -8.86142 13.22787 258 ft 21 kts 46°
2026-04-30 18:19 -8.86042 13.22893 257 ft 20 kts 46°
2026-04-30 18:19 -8.85945 13.22995 258 ft 20 kts 46°
2026-04-30 18:19 -8.85834 13.23055 258 ft 19 kts
2026-04-30 18:20 -8.85702 13.23061 258 ft 19 kts
2026-04-30 18:20 -8.85575 13.23066 258 ft 18 kts
2026-04-30 18:20 -8.85453 13.23070 259 ft 17 kts
2026-04-30 18:20 -8.85335 13.23074 260 ft 17 kts
2026-04-30 18:21 -8.85220 13.23076 259 ft 16 kts
2026-04-30 18:21 -8.85117 13.23099 259 ft 15 kts 47°
2026-04-30 18:21 -8.85064 13.23190 258 ft 15 kts 69°
2026-04-30 18:21 -8.85016 13.23279 258 ft 14 kts 60°
2026-04-30 18:22 -8.84976 13.23369 258 ft 14 kts 68°
2026-04-30 18:22 -8.84901 13.23397 258 ft 0 kts 338°